Hilo, HI

8:00 AM HST on February 25, 2018 (GMT -1000)
Hilo International

Weather History for PHTO - April, 2014

Change the Weather History Date:

Wednesday, April 9, 2014

  Actual Average Record
Temperature  
Mean Temperature 73 °F 72 °F  
Max Temperature 78 °F 79 °F 85 °F (1963)
Min Temperature 67 °F 65 °F 62 °F (1953)
Degree Days  
Heating Degree Days 0 0  
Month to date heating degree days 0 0  
Since 1 July heating degree days 0 0  
Cooling Degree Days 8 7  
Month to date cooling degree days 73 63  
Year to date cooling degree days 767 644  
Growing Degree Days 22 (Base 50)    
Moisture  
Dew Point 60 °F    
Average Humidity 68    
Maximum Humidity 87    
Minimum Humidity 48    
Precipitation  
Precipitation 0.01 in 0.41 in 3.95 in (1986)
Month to date precipitation 7.34 3.86  
Year to date precipitation 34.30 36.11  
Snow  
Snow 0.00 in - - ()
Month to date snowfall 0.0  
Since 1 July snowfall 0.0  
Snow Depth 0.00 in    
Sea Level Pressure  
Sea Level Pressure 30.06 in    
Wind  
Wind Speed 10 mph (NNW)    
Max Wind Speed 16 mph    
Max Gust Speed 21 mph    
Visibility 10 miles    
Events Rain    
T = Trace of Precipitation, MM = Missing Value Source: NWS Daily Summary

Daily Weather History Graph

Daily Weather History Graph

Search for Another Location

Airport or City:

Trip Planner

Search our weather history database for the weather conditions in past years. The results will help you decide how hot, cold, wet, or windy it might be!

Date:

Astronomy

Apr. 09, 2014 Rise Set
Actual Time 6:07 AM HST 6:36 PM HST
Civil Twilight 5:44 AM HST 6:58 PM HST
Nautical Twilight 5:18 AM HST 7:24 PM HST
Astronomical Twilight 4:52 AM HST 7:51 PM HST
Moon 2:12 PM HST (4/9) 2:22 AM HST (4/9)
Length of Visible Light 13h 14m
Length of Day
12h 29m
Waxing Gibbous, 73% of the Moon is Illuminated
Apr 9
Waxing Gibbous
Apr 14
Full
Apr 21
Last Quarter
Apr 28
New
May 6
First Quarter

Hourly Weather History & Observations

Time (HST) Temp. Dew Point Humidity Pressure Visibility Wind Dir Wind Speed Gust Speed Precip Events Conditions
12:53 AM 68.0 °F 63.0 °F 84% 30.09 in 10.0 mi NNW 9.2 mph - N/A   Overcast
1:53 AM 66.9 °F 63.0 °F 87% 30.07 in 10.0 mi NNW 6.9 mph - 0.00 in Rain Light Rain
2:53 AM 66.9 °F 62.1 °F 84% 30.05 in 10.0 mi NNW 9.2 mph - 0.01 in Rain Light Rain
3:53 AM 68.0 °F 62.1 °F 81% 30.04 in 10.0 mi NNW 8.1 mph - 0.00 in   Overcast
4:53 AM 68.0 °F 60.1 °F 76% 30.05 in 10.0 mi NW 10.4 mph - 0.00 in Rain Light Rain
5:53 AM 68.0 °F 61.0 °F 78% 30.06 in 10.0 mi NW 5.8 mph - 0.00 in   Overcast
6:53 AM 69.1 °F 60.1 °F 73% 30.08 in 10.0 mi NNW 6.9 mph - 0.00 in Rain Light Rain
7:53 AM 69.1 °F 61.0 °F 75% 30.09 in 10.0 mi NW 10.4 mph - 0.00 in   Mostly Cloudy
8:53 AM 71.1 °F 61.0 °F 70% 30.10 in 10.0 mi North 9.2 mph - 0.00 in   Overcast
9:53 AM 72.0 °F 60.1 °F 66% 30.10 in 10.0 mi North 9.2 mph - N/A   Overcast
10:53 AM 75.0 °F 57.9 °F 55% 30.09 in 10.0 mi North 11.5 mph - N/A   Mostly Cloudy
11:53 AM 78.1 °F 60.1 °F 54% 30.08 in 10.0 mi NE 10.4 mph - N/A   Mostly Cloudy
12:53 PM 78.1 °F 57.9 °F 50% 30.06 in 10.0 mi NNE 11.5 mph - N/A   Scattered Clouds
1:53 PM 77.0 °F 60.1 °F 56% 30.03 in 10.0 mi NE 12.7 mph - N/A   Scattered Clouds
2:53 PM 77.0 °F 60.1 °F 56% 30.01 in 10.0 mi North 12.7 mph - N/A   Mostly Cloudy
3:53 PM 77.0 °F 60.1 °F 56% 30.01 in 10.0 mi NNE 11.5 mph - N/A   Scattered Clouds
4:53 PM 73.9 °F 57.0 °F 55% 30.01 in 10.0 mi ENE 10.4 mph - N/A   Mostly Cloudy
5:53 PM 73.9 °F 57.9 °F 57% 30.02 in 10.0 mi NNE 9.2 mph - N/A   Clear
6:53 PM 72.0 °F 59.0 °F 64% 30.05 in 10.0 mi NNE 5.8 mph - N/A   Clear
7:53 PM 71.1 °F 60.1 °F 68% 30.06 in 10.0 mi NW 9.2 mph - N/A   Mostly Cloudy
8:53 PM 71.1 °F 61.0 °F 70% 30.08 in 10.0 mi NW 6.9 mph - N/A   Overcast
9:53 PM 71.1 °F 61.0 °F 70% 30.11 in 10.0 mi NW 8.1 mph - N/A   Overcast
10:53 PM 70.0 °F 61.0 °F 73% 30.10 in 10.0 mi WNW 4.6 mph - N/A   Overcast
11:53 PM 69.1 °F 63.0 °F 81% 30.08 in 10.0 mi West 6.9 mph - 0.00 in Rain Light Rain